Weather History for CWUW - May, 2013

Change the Weather History Date:

Monday, May 20, 2013

  Actual Average Record
Temperature  
Mean Temperature 11 °F -  
Max Temperature 14 °F 21 °F 33 °F (2008)
Min Temperature 8 °F 13 °F 6 °F (2011)
Degree Days  
Heating Degree Days 54    
Moisture  
Dew Point -    
Average Humidity    
Maximum Humidity    
Minimum Humidity    
Precipitation  
Precipitation 0.00 in - - ()
Sea Level Pressure  
Sea Level Pressure 30.09 in    
Wind  
Wind Speed 25 mph ()    
Max Wind Speed 36 mph    
Max Gust Speed 40 mph    
Visibility 2.5 miles    
Events      
Averages and records for this station are not official NWS values.
T = Trace of Precipitation, MM = Missing Value Source: Averaged Metar Reports

Daily Weather History Graph

Daily Weather History Graph

Search for Another Location

Airport or City:

Trip Planner

Search our weather history database for the weather conditions in past years. The results will help you decide how hot, cold, wet, or windy it might be!

Date:

Astronomy

May. 20, 2013 Rise Set
Actual Time 1:33 AM EDT 12:00 AM EDT
Civil Twilight Sun does not set Sun does not set
Nautical Twilight Sun does not set Sun does not set
Astronomical Twilight Sun does not set Sun does not set
Moon 3:32 PM EDT (5/20) 2:07 AM EDT (5/20)
Length of Visible Light 24h 00m
Length of Day
22h 27m
Waxing Gibbous, 75% of the Moon is Illuminated
May 20
Waxing Gibbous
May 25
Full
May 31
Last Quarter
Jun 8
New
Jun 16
First Quarter

Hourly Weather History & Observations

Time (EDT) Temp. Windchill Dew Point Humidity Pressure Visibility Wind Dir Wind Speed Gust Speed Precip Events Conditions
12:00 AM 12.2 °F -7.5 °F - N/A% 30.11 in 9.0 mi East 24.2 mph - N/A   Clear
1:00 AM 10.4 °F -9.1 °F - N/A% 30.10 in 8.0 mi East 21.9 mph 27.6 mph N/A   Clear
2:00 AM 10 °F - - % 30.11 in 6 mi East 25.3 mph - -  
2:00 AM 10.4 °F -9.9 °F - N/A% 30.11 in 6.0 mi East 24.2 mph - N/A   Clear
2:24 AM 8.6 °F -13.8 °F - N/A% 29.95 in 3.0 mi East 28.8 mph - N/A   Clear
2:43 AM 8.6 °F -13.1 °F - N/A% 29.97 in 6.0 mi East 26.5 mph - N/A   Clear
2:52 AM 8.6 °F -13.1 °F - N/A% 29.96 in 6.0 mi East 26.5 mph - N/A   Clear
2:58 AM 8.6 °F -13.1 °F - N/A% 29.96 in 5.0 mi East 26.5 mph - N/A   Clear
3:00 AM 8.6 °F -13.4 °F - N/A% 30.13 in 4.0 mi East 27.6 mph - N/A   Clear
3:09 AM 8.6 °F -13.8 °F - N/A% 29.96 in 3.0 mi East 28.8 mph - N/A   Clear
3:35 AM 8.6 °F -14.1 °F - N/A% 29.96 in 1.4 mi East 29.9 mph - N/A   Partly Cloudy
3:43 AM 8.6 °F -14.5 °F - N/A% 29.96 in 1.0 mi East 31.1 mph - N/A   Partly Cloudy
3:47 AM 8.6 °F -15.1 °F - N/A% 29.96 in 0.8 mi East 33.4 mph - N/A   Mostly Cloudy
3:51 AM 8.6 °F -14.1 °F - N/A% 29.96 in 0.6 mi East 29.9 mph - N/A   Scattered Clouds
4:00 AM 8.6 °F -15.1 °F - N/A% 30.12 in 0.5 mi East 33.4 mph - N/A   Clear
4:15 AM 8.6 °F -13.8 °F - N/A% 29.96 in 0.5 mi East 28.8 mph 40.3 mph N/A   Clear
4:17 AM 8.6 °F -13.8 °F - N/A% 29.96 in 0.4 mi East 28.8 mph 36.8 mph N/A   Clear
4:27 AM 8.6 °F -13.1 °F - N/A% 29.98 in 1.0 mi East 26.5 mph 32.2 mph N/A   Clear
4:37 AM 8.6 °F -13.1 °F - N/A% 29.98 in 1.4 mi East 26.5 mph - N/A   Clear
4:45 AM 8.6 °F -11.0 °F - N/A% 29.98 in 3.5 mi East 20.7 mph 27.6 mph N/A   Clear
5:00 AM 8 °F - - % 30.14 in 3 mi East 25.3 mph - -  
5:00 AM 8.6 °F -12.3 °F - N/A% 30.14 in 3.5 mi East 24.2 mph - N/A   Clear
5:19 AM 8.6 °F -13.1 °F - N/A% 29.97 in 3.0 mi East 26.5 mph - N/A   Clear
5:26 AM 8.6 °F -13.4 °F - N/A% 29.97 in 1.4 mi East 27.6 mph - N/A   Clear
5:43 AM 8.6 °F -11.9 °F - N/A% 29.98 in 2.0 mi East 23.0 mph 28.8 mph N/A   Clear
5:59 AM 8.6 °F -13.1 °F - N/A% 29.98 in 4.0 mi East 26.5 mph - N/A   Clear
6:21 AM 8.6 °F -13.1 °F - N/A% 29.99 in 2.8 mi East 26.5 mph - N/A   Clear
6:29 AM 8.6 °F -13.8 °F - N/A% 29.99 in 1.4 mi East 28.8 mph - N/A   Clear
6:52 AM 8.6 °F -15.7 °F - N/A% 29.99 in 1.0 mi East 35.7 mph - N/A   Partly Cloudy
7:00 AM 8.6 °F -13.8 °F - N/A% 30.17 in 1.0 mi East 28.8 mph 36.8 mph N/A   Clear
7:06 AM 8.6 °F -13.1 °F - N/A% 30.00 in 1.5 mi East 26.5 mph 33.4 mph N/A   Clear
7:12 AM 8.6 °F -15.1 °F - N/A% 30.00 in 1.4 mi East 33.4 mph - N/A   Clear
7:17 AM 8.6 °F -15.7 °F - N/A% 29.99 in 1.0 mi East 35.7 mph - N/A   Clear
7:19 AM 8.6 °F -15.7 °F - N/A% 29.99 in 0.6 mi East 35.7 mph - N/A   Clear
7:57 AM 10.4 °F -11.4 °F - N/A% 30.00 in 0.5 mi East 28.8 mph 35.7 mph N/A   Mostly Cloudy
7:58 AM 10.4 °F -11.4 °F - N/A% 30.00 in 0.5 mi East 28.8 mph 35.7 mph N/A   Mostly Cloudy
8:00 AM 10 °F - - % 30.17 in 0 mi East 29.9 mph - -   Overcast
8:00 AM 10.4 °F -11.0 °F - N/A% 30.17 in 0.5 mi East 27.6 mph 35.7 mph N/A   Overcast
8:03 AM 10.4 °F -11.7 °F - N/A% 30.00 in 0.5 mi East 29.9 mph - N/A   Overcast
8:32 AM 10.4 °F -11.7 °F - N/A% 30.01 in 0.4 mi East 29.9 mph - N/A   Clear
8:49 AM 10.4 °F -10.7 °F - N/A% 30.01 in 0.6 mi ENE 26.5 mph - N/A   Overcast
9:00 AM 10.4 °F -10.7 °F - N/A% 30.18 in 0.6 mi East 26.5 mph 32.2 mph N/A   Clear
9:14 AM 10.4 °F -11.7 °F - N/A% 30.01 in 1.0 mi East 29.9 mph - N/A   Overcast
9:17 AM 10.4 °F -12.7 °F - N/A% 30.00 in 1.1 mi East 33.4 mph - N/A   Partly Cloudy
9:23 AM 10.4 °F -12.3 °F - N/A% 30.00 in 1.0 mi East 32.2 mph - N/A   Clear
9:35 AM 10.4 °F -11.7 °F - N/A% 30.01 in 1.0 mi ENE 29.9 mph - N/A   Mostly Cloudy
9:39 AM 10.4 °F -11.7 °F - N/A% 30.01 in 1.0 mi ENE 29.9 mph - N/A   Partly Cloudy
9:43 AM 10.4 °F -11.4 °F - N/A% 30.01 in 1.5 mi East 28.8 mph - N/A   Partly Cloudy
10:00 AM 10.4 °F -10.7 °F - N/A% 30.19 in 2.2 mi East 26.5 mph 32.2 mph N/A   Clear
10:13 AM 12.2 °F -7.9 °F - N/A% 30.02 in 5.0 mi East 25.3 mph - N/A   Clear
11:00 AM 12 °F - - % 30.21 in 4 mi East 26.5 mph - -  
11:00 AM 12.2 °F -8.2 °F - N/A% 30.21 in 4.0 mi East 26.5 mph - N/A   Clear
11:13 AM 12.2 °F -7.1 °F - N/A% 30.03 in 3.0 mi East 23.0 mph 28.8 mph N/A   Clear
12:00 PM 12.2 °F -7.1 °F - N/A% 30.22 in 2.8 mi East 23.0 mph 28.8 mph N/A   Partly Cloudy
12:11 PM 12.2 °F -6.7 °F - N/A% 30.04 in 5.0 mi East 21.9 mph - N/A   Partly Cloudy
1:00 PM 12.2 °F -7.1 °F - N/A% 30.22 in 4.0 mi East 23.0 mph 28.8 mph N/A   Clear
1:10 PM 12.2 °F -8.2 °F - N/A% 30.06 in 2.8 mi East 26.5 mph - N/A   Clear
1:34 PM 12.2 °F -6.7 °F - N/A% 30.06 in 4.0 mi East 21.9 mph 28.8 mph N/A   Clear
2:00 PM 13 °F - - % 30.23 in 3 mi East 23.0 mph - -  
2:00 PM 12.2 °F -7.5 °F - N/A% 30.23 in 3.5 mi East 24.2 mph - N/A   Partly Cloudy
2:20 PM 12.2 °F -7.1 °F - N/A% 30.06 in 4.0 mi East 23.0 mph - N/A   Overcast
2:25 PM 12.2 °F -7.9 °F - N/A% 30.06 in 4.0 mi East 25.3 mph - N/A   Overcast
2:26 PM 12.2 °F -8.2 °F - N/A% 30.06 in 4.0 mi East 26.5 mph - N/A   Overcast
2:32 PM 12.2 °F -6.7 °F - N/A% 30.06 in 4.0 mi East 21.9 mph - N/A   Partly Cloudy
2:34 PM 12.2 °F -6.7 °F - N/A% 30.06 in 4.0 mi East 21.9 mph - N/A   Mostly Cloudy
2:35 PM 12.2 °F -7.1 °F - N/A% 30.06 in 4.0 mi East 23.0 mph - N/A   Mostly Cloudy
2:38 PM 12.2 °F -7.1 °F - N/A% 30.06 in 5.0 mi East 23.0 mph - N/A   Mostly Cloudy
2:39 PM 12.2 °F -7.1 °F - N/A% 30.06 in 5.0 mi East 23.0 mph - N/A   Scattered Clouds
3:00 PM 14.0 °F -3.9 °F - N/A% 30.24 in 5.0 mi East 20.7 mph 26.5 mph N/A   Clear
4:00 PM 12.2 °F -6.7 °F - N/A% 30.26 in 8.0 mi East 21.9 mph - N/A   Clear
4:42 PM 12.2 °F -8.6 °F - N/A% 30.07 in 2.8 mi East 27.6 mph - N/A   Clear
5:00 PM 12 °F - - % 30.25 in 3 mi East 26.5 mph - -  
5:00 PM 12.2 °F -7.5 °F - N/A% 30.25 in 3.0 mi East 24.2 mph 31.1 mph N/A   Partly Cloudy
5:24 PM 12.2 °F -7.9 °F - N/A% 30.08 in 3.0 mi East 25.3 mph 31.1 mph N/A   Clear
5:59 PM 12.2 °F -6.7 °F - N/A% 30.10 in 4.0 mi East 21.9 mph 27.6 mph N/A   Clear
6:00 PM 12.2 °F -6.7 °F - N/A% 30.28 in 4.0 mi East 21.9 mph 27.6 mph N/A   Clear
7:00 PM 10.4 °F -9.9 °F - N/A% 30.29 in 5.0 mi ENE 24.2 mph - N/A   Clear
7:19 PM 10.4 °F -10.7 °F - N/A% 30.11 in 2.6 mi ENE 26.5 mph - N/A   Clear
7:23 PM 10.4 °F -11.0 °F - N/A% 30.11 in 1.4 mi East 27.6 mph - N/A   Clear
7:55 PM 10.4 °F -10.3 °F - N/A% 30.11 in 1.0 mi East 25.3 mph - N/A   Clear
8:26 PM 10.4 °F -10.7 °F - N/A% 30.13 in 1.5 mi ENE 26.5 mph - N/A   Clear
8:33 PM 10.4 °F -10.7 °F - N/A% 30.12 in 1.4 mi ENE 26.5 mph - N/A   Partly Cloudy
8:35 PM 10.4 °F -10.7 °F - N/A% 30.13 in 1.2 mi ENE 26.5 mph - N/A   Mostly Cloudy
8:40 PM 10.4 °F -10.7 °F - N/A% 30.12 in 1.2 mi ENE 26.5 mph - N/A   Mostly Cloudy
8:44 PM 10.4 °F -10.7 °F - N/A% 30.12 in 1.4 mi East 26.5 mph - N/A   Overcast
8:45 PM 10.4 °F -9.9 °F - N/A% 30.12 in 1.4 mi East 24.2 mph - N/A   Overcast
8:46 PM 10.4 °F -9.9 °F - N/A% 30.12 in 1.4 mi East 24.2 mph - N/A   Overcast
8:56 PM 10.4 °F -11.0 °F - N/A% 30.11 in 1.1 mi East 27.6 mph - N/A   Overcast
8:59 PM 10.4 °F -10.3 °F - N/A% 30.11 in 1.2 mi East 25.3 mph 31.1 mph N/A   Overcast
9:00 PM 10.4 °F -10.7 °F - N/A% 30.29 in 1.2 mi East 26.5 mph - N/A   Overcast
9:12 PM 8.6 °F -13.1 °F - N/A% 30.12 in 1.0 mi East 26.5 mph 38.0 mph N/A   Mostly Cloudy
9:14 PM 8.6 °F -13.4 °F - N/A% 30.12 in 1.0 mi East 27.6 mph 35.7 mph N/A   Partly Cloudy
9:26 PM 8.6 °F -12.7 °F - N/A% 30.13 in 1.5 mi East 25.3 mph - N/A   Scattered Clouds
9:30 PM 8.6 °F -13.1 °F - N/A% 30.12 in 2.0 mi East 26.5 mph - N/A   Mostly Cloudy
9:31 PM 8.6 °F -12.7 °F - N/A% 30.12 in 2.0 mi East 25.3 mph - N/A   Mostly Cloudy
9:39 PM 8.6 °F -13.4 °F - N/A% 30.12 in 1.2 mi East 27.6 mph 33.4 mph N/A   Clear
10:00 PM 8.6 °F -11.9 °F - N/A% 30.31 in 1.5 mi East 23.0 mph 31.1 mph N/A   Clear
11:00 PM 9 °F - - % 30.31 in 1 mi East 24.2 mph - -  
11:00 PM 8.6 °F -13.4 °F - N/A% 30.31 in 1.5 mi ENE 27.6 mph - N/A   Clear
11:03 PM 8.6 °F -12.7 °F - N/A% 30.14 in 1.4 mi East 25.3 mph - N/A   Clear
11:17 PM 8.6 °F -12.3 °F - N/A% 30.15 in 3.0 mi ENE 24.2 mph - N/A   Overcast
11:25 PM 8.6 °F -12.3 °F - N/A% 30.13 in 2.8 mi ENE 24.2 mph - N/A   Overcast
11:47 PM 8.6 °F -13.1 °F - N/A% 30.13 in 3.0 mi ENE 26.5 mph - N/A   Clear